﻿測定場所 (Monitoring sites),日付 (Measurement date),時間 (Measurement time),線量率 最大値 (max) μGy/h,線量率 最小値 (min) μGy/h,線量率 平均値 (average) μGy/h,
新宿 (Shinjuku),2019-03-10,23:01～24:00,0.0477,0.0396,0.0433,
新宿 (Shinjuku),2019-03-10,22:01～23:00,0.0461,0.0396,0.0424,
新宿 (Shinjuku),2019-03-10,21:01～22:00,0.0439,0.0349,0.0390,
新宿 (Shinjuku),2019-03-10,20:01～21:00,0.0414,0.0360,0.0380,
新宿 (Shinjuku),2019-03-10,19:01～20:00,0.0401,0.0347,0.0368,
新宿 (Shinjuku),2019-03-10,18:01～19:00,0.0389,0.0345,0.0364,
新宿 (Shinjuku),2019-03-10,17:01～18:00,0.0387,0.0345,0.0362,
新宿 (Shinjuku),2019-03-10,16:01～17:00,0.0384,0.0342,0.0364,
新宿 (Shinjuku),2019-03-10,15:01～16:00,0.0401,0.0343,0.0363,
新宿 (Shinjuku),2019-03-10,14:01～15:00,0.0395,0.0346,0.0370,
新宿 (Shinjuku),2019-03-10,13:01～14:00,0.0400,0.0343,0.0370,
新宿 (Shinjuku),2019-03-10,12:01～13:00,0.0397,0.0352,0.0371,
新宿 (Shinjuku),2019-03-10,11:01～12:00,0.0400,0.0352,0.0370,
新宿 (Shinjuku),2019-03-10,10:01～11:00,0.0406,0.0355,0.0376,
新宿 (Shinjuku),2019-03-10,09:01～10:00,0.0414,0.0354,0.0375,
新宿 (Shinjuku),2019-03-10,08:01～09:00,0.0407,0.0356,0.0376,
新宿 (Shinjuku),2019-03-10,07:01～08:00,0.0409,0.0349,0.0373,
新宿 (Shinjuku),2019-03-10,06:01～07:00,0.0403,0.0348,0.0373,
新宿 (Shinjuku),2019-03-10,05:01～06:00,0.0421,0.0353,0.0373,
新宿 (Shinjuku),2019-03-10,04:01～05:00,0.0405,0.0344,0.0366,
新宿 (Shinjuku),2019-03-10,03:01～04:00,0.0405,0.0346,0.0366,
新宿 (Shinjuku),2019-03-10,02:01～03:00,0.0389,0.0335,0.0362,
新宿 (Shinjuku),2019-03-10,01:01～02:00,0.0399,0.0340,0.0364,
新宿 (Shinjuku),2019-03-10,00:01～01:00,0.0388,0.0334,0.0364,
新宿 (Shinjuku),2019-03-09,23:01～24:00,0.0383,0.0339,0.0362,
新宿 (Shinjuku),2019-03-09,22:01～23:00,0.0392,0.0347,0.0364,
新宿 (Shinjuku),2019-03-09,21:01～22:00,0.0407,0.0340,0.0363,
新宿 (Shinjuku),2019-03-09,20:01～21:00,0.0394,0.0341,0.0361,
新宿 (Shinjuku),2019-03-09,19:01～20:00,0.0409,0.0342,0.0362,
新宿 (Shinjuku),2019-03-09,18:01～19:00,0.0391,0.0346,0.0363,
新宿 (Shinjuku),2019-03-09,17:01～18:00,0.0392,0.0341,0.0362,
新宿 (Shinjuku),2019-03-09,16:01～17:00,0.0380,0.0350,0.0364,
新宿 (Shinjuku),2019-03-09,15:01～16:00,0.0394,0.0336,0.0366,
新宿 (Shinjuku),2019-03-09,14:01～15:00,0.0389,0.0350,0.0366,
新宿 (Shinjuku),2019-03-09,13:01～14:00,0.0389,0.0346,0.0367,
新宿 (Shinjuku),2019-03-09,12:01～13:00,0.0421,0.0346,0.0367,
新宿 (Shinjuku),2019-03-09,11:01～12:00,0.0398,0.0350,0.0368,
新宿 (Shinjuku),2019-03-09,10:01～11:00,0.0400,0.0346,0.0369,
新宿 (Shinjuku),2019-03-09,09:01～10:00,0.0407,0.0349,0.0371,
新宿 (Shinjuku),2019-03-09,08:01～09:00,0.0397,0.0350,0.0370,
新宿 (Shinjuku),2019-03-09,07:01～08:00,0.0401,0.0348,0.0367,
新宿 (Shinjuku),2019-03-09,06:01～07:00,0.0399,0.0354,0.0368,
新宿 (Shinjuku),2019-03-09,05:01～06:00,0.0384,0.0345,0.0365,
新宿 (Shinjuku),2019-03-09,04:01～05:00,0.0409,0.0349,0.0367,
新宿 (Shinjuku),2019-03-09,03:01～04:00,0.0390,0.0344,0.0363,
新宿 (Shinjuku),2019-03-09,02:01～03:00,0.0402,0.0337,0.0363,
新宿 (Shinjuku),2019-03-09,01:01～02:00,0.0383,0.0345,0.0363,
新宿 (Shinjuku),2019-03-09,00:01～01:00,0.0387,0.0340,0.0363,
新宿 (Shinjuku),2019-03-08,23:01～24:00,0.0388,0.0345,0.0362,
新宿 (Shinjuku),2019-03-08,22:01～23:00,0.0397,0.0343,0.0364,
新宿 (Shinjuku),2019-03-08,21:01～22:00,0.0385,0.0341,0.0361,
新宿 (Shinjuku),2019-03-08,20:01～21:00,0.0384,0.0343,0.0362,
新宿 (Shinjuku),2019-03-08,19:01～20:00,0.0424,0.0341,0.0363,
新宿 (Shinjuku),2019-03-08,18:01～19:00,0.0397,0.0342,0.0362,
新宿 (Shinjuku),2019-03-08,17:01～18:00,0.0380,0.0341,0.0360,
新宿 (Shinjuku),2019-03-08,16:01～17:00,0.0407,0.0340,0.0364,
新宿 (Shinjuku),2019-03-08,15:01～16:00,0.0396,0.0335,0.0362,
新宿 (Shinjuku),2019-03-08,14:01～15:00,0.0392,0.0340,0.0365,
新宿 (Shinjuku),2019-03-08,13:01～14:00,0.0392,0.0334,0.0363,
新宿 (Shinjuku),2019-03-08,12:01～13:00,0.0394,0.0346,0.0364,
新宿 (Shinjuku),2019-03-08,11:01～12:00,0.0388,0.0343,0.0361,
新宿 (Shinjuku),2019-03-08,10:01～11:00,0.0385,0.0341,0.0360,
新宿 (Shinjuku),2019-03-08,09:01～10:00,0.0382,0.0337,0.0359,
新宿 (Shinjuku),2019-03-08,08:01～09:00,0.0387,0.0339,0.0363,
新宿 (Shinjuku),2019-03-08,07:01～08:00,0.0381,0.0343,0.0361,
新宿 (Shinjuku),2019-03-08,06:01～07:00,0.0404,0.0339,0.0363,
新宿 (Shinjuku),2019-03-08,05:01～06:00,0.0380,0.0342,0.0362,
新宿 (Shinjuku),2019-03-08,04:01～05:00,0.0391,0.0340,0.0363,
新宿 (Shinjuku),2019-03-08,03:01～04:00,0.0376,0.0333,0.0360,
新宿 (Shinjuku),2019-03-08,02:01～03:00,0.0395,0.0342,0.0364,
新宿 (Shinjuku),2019-03-08,01:01～02:00,0.0391,0.0343,0.0363,
新宿 (Shinjuku),2019-03-08,00:01～01:00,0.0388,0.0336,0.0364,
新宿 (Shinjuku),2019-03-07,23:01～24:00,0.0402,0.0346,0.0368,
新宿 (Shinjuku),2019-03-07,22:01～23:00,0.0419,0.0359,0.0383,
新宿 (Shinjuku),2019-03-07,21:01～22:00,0.0517,0.0367,0.0441,
新宿 (Shinjuku),2019-03-07,20:01～21:00,0.0753,0.0476,0.0605,
新宿 (Shinjuku),2019-03-07,19:01～20:00,0.0743,0.0563,0.0631,
新宿 (Shinjuku),2019-03-07,18:01～19:00,0.0613,0.0456,0.0546,
新宿 (Shinjuku),2019-03-07,17:01～18:00,0.0606,0.0451,0.0513,
新宿 (Shinjuku),2019-03-07,16:01～17:00,0.0711,0.0586,0.0663,
新宿 (Shinjuku),2019-03-07,15:01～16:00,0.0704,0.0568,0.0639,
新宿 (Shinjuku),2019-03-07,14:01～15:00,0.0570,0.0362,0.0449,
新宿 (Shinjuku),2019-03-07,13:01～14:00,0.0418,0.0349,0.0379,
新宿 (Shinjuku),2019-03-07,12:01～13:00,0.0431,0.0364,0.0397,
新宿 (Shinjuku),2019-03-07,11:01～12:00,0.0443,0.0364,0.0395,
新宿 (Shinjuku),2019-03-07,10:01～11:00,0.0436,0.0362,0.0395,
新宿 (Shinjuku),2019-03-07,09:01～10:00,0.0448,0.0383,0.0424,
新宿 (Shinjuku),2019-03-07,08:01～09:00,0.0484,0.0407,0.0445,
新宿 (Shinjuku),2019-03-07,07:01～08:00,0.0497,0.0403,0.0444,
新宿 (Shinjuku),2019-03-07,06:01～07:00,0.0457,0.0377,0.0425,
新宿 (Shinjuku),2019-03-07,05:01～06:00,0.0466,0.0400,0.0438,
新宿 (Shinjuku),2019-03-07,04:01～05:00,0.0460,0.0395,0.0431,
新宿 (Shinjuku),2019-03-07,03:01～04:00,0.0472,0.0400,0.0431,
新宿 (Shinjuku),2019-03-07,02:01～03:00,0.0468,0.0402,0.0434,
新宿 (Shinjuku),2019-03-07,01:01～02:00,0.0469,0.0402,0.0434,
新宿 (Shinjuku),2019-03-07,00:01～01:00,0.0470,0.0398,0.0432,
新宿 (Shinjuku),2019-03-06,23:01～24:00,0.0454,0.0375,0.0423,
新宿 (Shinjuku),2019-03-06,22:01～23:00,0.0432,0.0362,0.0388,
新宿 (Shinjuku),2019-03-06,21:01～22:00,0.0397,0.0351,0.0369,
新宿 (Shinjuku),2019-03-06,20:01～21:00,0.0398,0.0344,0.0371,
新宿 (Shinjuku),2019-03-06,19:01～20:00,0.0404,0.0345,0.0368,
新宿 (Shinjuku),2019-03-06,18:01～19:00,0.0382,0.0344,0.0362,
新宿 (Shinjuku),2019-03-06,17:01～18:00,0.0414,0.0340,0.0364,
新宿 (Shinjuku),2019-03-06,16:01～17:00,0.0382,0.0341,0.0362,
新宿 (Shinjuku),2019-03-06,15:01～16:00,0.0393,0.0333,0.0365,
新宿 (Shinjuku),2019-03-06,14:01～15:00,0.0401,0.0340,0.0367,
新宿 (Shinjuku),2019-03-06,13:01～14:00,0.0395,0.0351,0.0370,
新宿 (Shinjuku),2019-03-06,12:01～13:00,0.0400,0.0341,0.0366,
新宿 (Shinjuku),2019-03-06,11:01～12:00,0.0403,0.0345,0.0368,
新宿 (Shinjuku),2019-03-06,10:01～11:00,0.0407,0.0353,0.0371,
新宿 (Shinjuku),2019-03-06,09:01～10:00,0.0404,0.0344,0.0367,
新宿 (Shinjuku),2019-03-06,08:01～09:00,0.0408,0.0338,0.0369,
新宿 (Shinjuku),2019-03-06,07:01～08:00,0.0396,0.0347,0.0367,
新宿 (Shinjuku),2019-03-06,06:01～07:00,0.0399,0.0348,0.0368,
新宿 (Shinjuku),2019-03-06,05:01～06:00,0.0389,0.0346,0.0365,
新宿 (Shinjuku),2019-03-06,04:01～05:00,0.0407,0.0352,0.0371,
新宿 (Shinjuku),2019-03-06,03:01～04:00,0.0399,0.0346,0.0366,
新宿 (Shinjuku),2019-03-06,02:01～03:00,0.0426,0.0346,0.0369,
新宿 (Shinjuku),2019-03-06,01:01～02:00,0.0393,0.0349,0.0369,
新宿 (Shinjuku),2019-03-06,00:01～01:00,0.0414,0.0357,0.0384,
新宿 (Shinjuku),2019-03-05,23:01～24:00,0.0404,0.0349,0.0369,
新宿 (Shinjuku),2019-03-05,22:01～23:00,0.0398,0.0342,0.0366,
新宿 (Shinjuku),2019-03-05,21:01～22:00,0.0386,0.0349,0.0364,
新宿 (Shinjuku),2019-03-05,20:01～21:00,0.0398,0.0348,0.0367,
新宿 (Shinjuku),2019-03-05,19:01～20:00,0.0391,0.0349,0.0367,
新宿 (Shinjuku),2019-03-05,18:01～19:00,0.0388,0.0344,0.0364,
新宿 (Shinjuku),2019-03-05,17:01～18:00,0.0394,0.0334,0.0365,
新宿 (Shinjuku),2019-03-05,16:01～17:00,0.0400,0.0344,0.0367,
新宿 (Shinjuku),2019-03-05,15:01～16:00,0.0391,0.0346,0.0365,
新宿 (Shinjuku),2019-03-05,14:01～15:00,0.0391,0.0342,0.0367,
新宿 (Shinjuku),2019-03-05,13:01～14:00,0.0393,0.0343,0.0365,
新宿 (Shinjuku),2019-03-05,12:01～13:00,0.0424,0.0346,0.0368,
新宿 (Shinjuku),2019-03-05,11:01～12:00,0.0402,0.0346,0.0366,
新宿 (Shinjuku),2019-03-05,10:01～11:00,0.0415,0.0347,0.0366,
新宿 (Shinjuku),2019-03-05,09:01～10:00,0.0409,0.0346,0.0365,
新宿 (Shinjuku),2019-03-05,08:01～09:00,0.0396,0.0349,0.0366,
新宿 (Shinjuku),2019-03-05,07:01～08:00,0.0396,0.0337,0.0363,
新宿 (Shinjuku),2019-03-05,06:01～07:00,0.0388,0.0341,0.0365,
新宿 (Shinjuku),2019-03-05,05:01～06:00,0.0394,0.0349,0.0366,
新宿 (Shinjuku),2019-03-05,04:01～05:00,0.0401,0.0348,0.0366,
新宿 (Shinjuku),2019-03-05,03:01～04:00,0.0425,0.0347,0.0369,
新宿 (Shinjuku),2019-03-05,02:01～03:00,0.0418,0.0352,0.0374,
新宿 (Shinjuku),2019-03-05,01:01～02:00,0.0419,0.0361,0.0389,
新宿 (Shinjuku),2019-03-05,00:01～01:00,0.0437,0.0359,0.0383,
新宿 (Shinjuku),2019-03-04,23:01～24:00,0.0423,0.0356,0.0385,
新宿 (Shinjuku),2019-03-04,22:01～23:00,0.0422,0.0361,0.0388,
新宿 (Shinjuku),2019-03-04,21:01～22:00,0.0459,0.0355,0.0406,
新宿 (Shinjuku),2019-03-04,20:01～21:00,0.0425,0.0366,0.0390,
新宿 (Shinjuku),2019-03-04,19:01～20:00,0.0462,0.0374,0.0413,
新宿 (Shinjuku),2019-03-04,18:01～19:00,0.0446,0.0373,0.0413,
新宿 (Shinjuku),2019-03-04,17:01～18:00,0.0468,0.0394,0.0427,
新宿 (Shinjuku),2019-03-04,16:01～17:00,0.0448,0.0376,0.0414,
新宿 (Shinjuku),2019-03-04,15:01～16:00,0.0460,0.0370,0.0424,
新宿 (Shinjuku),2019-03-04,14:01～15:00,0.0524,0.0410,0.0461,
新宿 (Shinjuku),2019-03-04,13:01～14:00,0.0566,0.0471,0.0507,
新宿 (Shinjuku),2019-03-04,12:01～13:00,0.0569,0.0493,0.0531,
新宿 (Shinjuku),2019-03-04,11:01～12:00,0.0564,0.0489,0.0521,
新宿 (Shinjuku),2019-03-04,10:01～11:00,0.0561,0.0470,0.0503,
新宿 (Shinjuku),2019-03-04,09:01～10:00,0.0517,0.0445,0.0478,
新宿 (Shinjuku),2019-03-04,08:01～09:00,0.0539,0.0439,0.0501,
新宿 (Shinjuku),2019-03-04,07:01～08:00,0.0540,0.0440,0.0492,
新宿 (Shinjuku),2019-03-04,06:01～07:00,0.0524,0.0457,0.0490,
新宿 (Shinjuku),2019-03-04,05:01～06:00,0.0520,0.0452,0.0485,
新宿 (Shinjuku),2019-03-04,04:01～05:00,0.0547,0.0442,0.0504,
新宿 (Shinjuku),2019-03-04,03:01～04:00,0.0537,0.0463,0.0502,
新宿 (Shinjuku),2019-03-04,02:01～03:00,0.0540,0.0454,0.0497,
新宿 (Shinjuku),2019-03-04,01:01～02:00,0.0532,0.0457,0.0489,
新宿 (Shinjuku),2019-03-04,00:01～01:00,0.0510,0.0431,0.0468,
